Weather History for Anderson, SC

Change the Weather History Date:

Wednesday, June 4, 2014

  Actual Average Record
Temperature  
Mean Temperature 76 °F -  
Max Temperature 89 °F 84 °F 100 °F (1985)
Min Temperature 64 °F 64 °F 51 °F (1988)
Cooling Degree Days 12    
Growing Degree Days 26 (Base 50)    
Moisture  
Dew Point 66 °F    
Average Humidity 77    
Maximum Humidity 100    
Minimum Humidity 43    
Precipitation  
Precipitation 0.00 in - - ()
Sea Level Pressure  
Sea Level Pressure 29.92 in    
Wind  
Wind Speed 3 mph (SW)    
Max Wind Speed 13 mph    
Max Gust Speed -    
Visibility 8 miles    
Events Fog    
Averages and records for this station are not official NWS values.
T = Trace of Precipitation, MM = Missing Value Source: NWS Daily Summary

Daily Weather History Graph

Daily Weather History Graph

Search for Another Location

Airport:

Trip Planner

Search our weather history database for the weather conditions in past years. The results will help you decide how hot, cold, wet, or windy it might be!

Date:

Astronomy

Jun. 04, 2014 Rise Set
Actual Time 6:18 AM EDT 8:40 PM EDT
Civil Twilight 5:49 AM EDT 9:09 PM EDT
Nautical Twilight 5:13 AM EDT 9:44 PM EDT
Astronomical Twilight 4:34 AM EDT 10:24 PM EDT
Moon 12:25 PM EDT (6/4) 12:48 AM EDT (6/4)
Length of Visible Light 15h 19m
Length of Day
14h 21m
Waxing Crescent, 39% of the Moon is Illuminated
Jun 4
Waxing Crescent
Jun 5
First Quarter
Jun 13
Full
Jun 19
Last Quarter
Jun 27
New

Hourly Weather History & Observations

Time (EDT) Temp. Heat Index Dew Point Humidity Pressure Visibility Wind Dir Wind Speed Gust Speed Precip Events Conditions
12:56 AM 71.1 °F - 66.9 °F 87% 29.98 in 10.0 mi Calm Calm - N/A   Clear
1:56 AM 70.0 °F - 66.9 °F 90% 29.97 in 10.0 mi Calm Calm - N/A   Clear
2:56 AM 68.0 °F - 66.9 °F 96% 29.95 in 10.0 mi WSW 3.5 mph - N/A   Clear
3:56 AM 68.0 °F - 66.0 °F 93% 29.95 in 10.0 mi Calm Calm - N/A   Clear
4:56 AM 66.0 °F - 64.9 °F 96% 29.94 in 10.0 mi SSW 3.5 mph - N/A   Clear
5:56 AM 66.9 °F - 64.9 °F 93% 29.95 in 9.0 mi Calm Calm - N/A   Clear
6:35 AM 64.0 °F - 64.0 °F 100% 29.97 in 2.5 mi South 3.5 mph - N/A   Clear
6:39 AM 64.0 °F - 64.0 °F 100% 29.97 in 1.5 mi South 4.6 mph - N/A   Partly Cloudy
6:41 AM 64.0 °F - 64.0 °F 100% 29.98 in 0.8 mi South 4.6 mph - N/A   Mist
6:48 AM 64.9 °F - 64.0 °F 97% 29.98 in 0.5 mi Calm Calm - N/A Fog Fog
6:51 AM 64.4 °F - 64.4 °F 100% 29.98 in 1.0 mi Calm Calm - N/A   Mist
6:53 AM 64.4 °F - 64.4 °F 100% 29.98 in 4.0 mi SW 3.5 mph - N/A   Partly Cloudy
6:56 AM 64.9 °F - 64.9 °F 100% 29.96 in 8.0 mi WSW 3.5 mph - N/A   Partly Cloudy
7:56 AM 70.0 °F - 69.1 °F 97% 29.96 in 10.0 mi Calm Calm - N/A   Clear
8:56 AM 75.0 °F - 69.1 °F 82% 29.96 in 10.0 mi West 5.8 mph - N/A   Clear
9:56 AM 80.1 °F 82.7 °F 68.0 °F 67% 29.95 in 10.0 mi WSW 6.9 mph - N/A   Clear
10:56 AM 82.0 °F 84.5 °F 66.9 °F 60% 29.95 in 10.0 mi WNW 12.7 mph - N/A   Clear
11:56 AM 84.9 °F 87.1 °F 66.0 °F 53% 29.95 in 10.0 mi WSW 10.4 mph - N/A   Clear
12:56 PM 86.0 °F 88.2 °F 66.0 °F 51% 29.94 in 10.0 mi WSW 9.2 mph - N/A   Clear
1:56 PM 88.0 °F 88.7 °F 63.0 °F 43% 29.91 in 10.0 mi SW 6.9 mph - N/A   Clear
2:56 PM 89.1 °F 91.0 °F 64.9 °F 45% 29.88 in 10.0 mi SW 5.8 mph - N/A   Scattered Clouds
3:56 PM 88.0 °F 89.6 °F 64.9 °F 46% 29.85 in 10.0 mi SW 8.1 mph - N/A   Scattered Clouds
5:56 PM 88.0 °F 89.3 °F 64.0 °F 45% 29.83 in 10.0 mi West 9.2 mph - N/A   Clear
6:56 PM 86.0 °F 87.6 °F 64.9 °F 49% 29.83 in 10.0 mi West 8.1 mph - N/A   Clear
7:56 PM 82.9 °F 85.4 °F 66.9 °F 58% 29.83 in 10.0 mi WSW 6.9 mph - N/A   Clear
8:56 PM 82.0 °F 84.5 °F 66.9 °F 60% 29.83 in 10.0 mi SW 6.9 mph - N/A   Overcast
9:56 PM 79.0 °F - 68.0 °F 69% 29.84 in 10.0 mi WSW 6.9 mph - N/A   Scattered Clouds
10:56 PM 78.1 °F - 68.0 °F 71% 29.84 in 10.0 mi SW 8.1 mph - N/A   Partly Cloudy
11:56 PM 75.9 °F - 69.1 °F 79% 29.84 in 10.0 mi SW 6.9 mph - N/A   Clear